Regional Weather Roundup
Issued by NWS

Home | Current Version | Previous Version | Text Only | Print | Product List | Glossary Off
Versions: 1 2 3 4 5 6 7 8 9 10 11 12 13 14 15 16 17 18 19 20 21 22 23 24 25 26 27 28 29 30 31 32 33 34 35 36 37 38 39 40 41 42 43 44 45 46 47 48 49 50

000
ASUS43 KIND 021009
RWRIN

WEATHER ROUNDUP FOR INDIANA
NATIONAL WEATHER SERVICE INDIANAPOLIS IN
600 AM EDT WED SEP 02 2015

NOTE: "FAIR" INDICATES FEW OR NO CLOUDS BELOW 12,000 FEET WITH NO
SIGNIFICANT WEATHER AND/OR OBSTRUCTIONS TO VISIBILITY.

* - STATION DOES NOT REPORT WEATHER SUCH AS PRECIPITATION OR FOG.

+ - STATION NOT QUALITY CONTROLLED BY THE NATIONAL WEATHER SERVICE.
    USE DATA WITH CAUTION...ESPECIALLY DEWPOINT AND RELATIVE
    HUMIDITY OBSERVATIONS.

INZ001>003-010>013-019-020-021100-
NORTHWEST INDIANA

CITY           SKY/WX    TMP DP  RH WIND       PRES   REMARKS
GARY /AIRPORT/ PTCLDY    73  68  83 S7        30.04S
KNOX *+        CLEAR     66  66 100 S5        30.05S
LA PORTE +     CLOUDY   N/A N/A N/A CALM      30.06F FOG
MICHIGAN CITY+ CLEAR     70  68  94 S3        30.05S
MONTICELLO +   MOCLDY    70  70 100 S3        30.07R
RENSSELAER +   CLEAR     66  66 100 S3        30.07S FOG
VALPARAISO     FOG       67  65  93 CALM      30.06S VSB 3/4

$$

LMZ046-743>745-021100-
SOUTHERN LAKE MICHIGAN

STATION/POSITION TIME  TEMP    WIND        PRES    WAVE
                       AIR SEA DIR/SP/G            HT
                 (UTC) (F)     (DEG/KT/KT) (MB)    (FT)
BURNS HARBOR     0900   75     210/ 11/ 14 1017.6R
MICHIGAN CITY    0900   74     180/  9/ 11   N/A
5NW MICH CITY    1000   73 72  210/  8/ 10   N/A     1

$$

INZ004-005-014>016-021>024-021100-
NORTH CENTRAL INDIANA

CITY           SKY/WX    TMP DP  RH WIND       PRES   REMARKS
GOSHEN         PTCLDY    70  66  87 SW3       30.06S
LOGANSPORT +   PTCLDY    64  63  94 S3        30.08S FOG
PERU/GRISSOM   CLEAR     67  65  95 SW5       30.08R
ROCHESTER +    CLEAR     72  70  94 S3        30.08S
SOUTH BEND     PTCLDY    70  68  93 SW3       30.06S
WARSAW +       CLEAR     70  68  94 CALM      30.07S

$$

INZ006>009-017-018-025>027-021100-
NORTHEAST INDIANA

CITY           SKY/WX    TMP DP  RH WIND       PRES   REMARKS
AUBURN +       CLEAR     68  64  88 CALM      30.08S FOG
FORT WAYNE     PTCLDY    68  65  90 S3        30.08S
HUNTINGTON +   CLEAR     68  64  86 CALM      30.08S

$$

INZ028-029-035-036-043>045-051>053-021100-
WEST CENTRAL INDIANA

CITY           SKY/WX    TMP DP  RH WIND       PRES   REMARKS
CRAWFORDSVL +  CLEAR     61  61 100 CALM      30.10R FOG
GREENCASTLE +  CLEAR     66  63  88 CALM      30.10F FOG
LAFAYETTE      CLEAR     67  66  97 CALM      30.07S FOG
TERRE HAUTE    CLEAR     64  62  93 CALM      30.09S FOG

$$

INZ030>032-037>040-046>048-054>057-064-065-021100-
CENTRAL INDIANA

CITY           SKY/WX    TMP DP  RH WIND       PRES   REMARKS
FRANKFORT +    CLEAR    N/A N/A N/A CALM      30.11R HAZE
GREENWOOD *+   CLEAR     66  63  88 CALM      30.11R
INDIANAPOLIS   CLEAR     69  66  90 S6        30.09R
-EAGLE CREEK   CLEAR     67  66  97 CALM      30.09S FOG
KOKOMO *+      PTCLDY    66  63  88 SW6       30.09S
MARION +       CLEAR     64  59  83 CALM      30.10S
MT COMFORT *+  CLEAR     64 N/A N/A CALM      30.11R
SHELBYVILLE    CLEAR     66  63  90 CALM      30.10R FOG
ZIONSVILLE +   CLEAR     64  62  90 CALM      30.11R FOG

$$

INZ033-034-041-042-049-050-058-059-021100-
EAST CENTRAL INDIANA

CITY           SKY/WX    TMP DP  RH WIND       PRES   REMARKS
MUNCIE         PTCLDY    69  66  90 SW5       30.10S

$$

INZ060-061-067>069-081>083-085>088-021100-
SOUTHWEST INDIANA

CITY           SKY/WX    TMP DP  RH WIND       PRES   REMARKS
EVANSVILLE     CLEAR     69  67  93 CALM      30.10R FOG
HUNTINGBURG *+ PTCLDY    66  63  88 CALM      30.10S
WASHINGTON +   CLEAR     65  62  87 CALM      30.09R FOG

$$

INZ062-063-066-070>080-084-089>092-021100-
SOUTH CENTRAL AND SOUTHEAST INDIANA

CITY           SKY/WX    TMP DP  RH WIND       PRES   REMARKS
BLOOMINGTON    CLEAR     65  63  93 CALM      30.11S FOG
MADISON *+       N/A     64  63  94 CALM      30.13S VSB 1/4
NORTH VERNON + CLEAR     68  68 100 CALM      30.11F FOG
SEYMOUR +      FOG       64  64 100 CALM      30.10S VSB 1/4

$$




USA.gov is the U.S. government's official web portal to all federal, state and local government web resources and services.